Osage River (Missouri), Tuscumbia (06926080)

StateMissouriLatestUnknown (4090 cfs)
RiverOsage RiverRatingObservedEstimated
Updated2020-08-14 8:00 (33 minutes ago)Flood - The river is flooding. Obstacles can be treacherous or deadly. The river should be avoided at this stage for casual trips and definitely for the inexperienced. Trips should be attempted only with protective gear and equipment.Flood(none)(none)
Discharge4090 cfs (median: 11800 cfs)High - The river is high and potentially dangerous, especially for the young and / or inexperienced. Normal stream obstacles are sometimes difficult to navigate. Extended distances can be attempted, but canoe travel may not be advisable.High(none)(none)
Height3.87 feetGood - Conditions are ideal for a canoe or kayak. Boats typically will drag on fewer than one-quarter of riffles, if at all, and portages are unnecessary or rare. Normal float lengths can be attempted without a problem.Good(none)(none)
TrendFalling (falling over 24 hours)Low - River is low but can still be floated. Some riffles are okay but most come with significant dragging and might need a portage. Float lengths should be reduced to accommodate low flow, dragging, and portages.Low(none)(none)
USGSExternal icon USGS Site (External icon Google Maps)Poor - River is too low to float comfortably. Most or all riffles will drag or must be portaged and some obstacles (such as slick shelf rock) cause undue problems. Avoid the river at this stage for casual paddling trips.Poor(none)(none)

Trending Data

Plot Image

Trips for Osage River (Missouri), Tuscumbia (06926080)

DateStartEndDistanceConditionDischargeHeightFishingDetails

A total of 0 rows are displayed.

Condition Descriptions

Fishing Conditions

Fish Species

Notes

Classic Trip List

The classic River Trips application is still available for use. It is updated with the new system using a data retrofit. It is no longer maintained. The original River Trips application is no longer updated (as of 1 Dec 2016) but can be checked for errors or for the condition of the data before it was converted to the new system.

Gauge Data Table

ObservationHeightDischargeMaximum
Discharge
Minimum
Discharge
Mean
Discharge
P05P10P20P25P50
(Median)
P75P80P90P95
2020-08-14 08:00 3.87 4090 40000 (2019) 1210 (2018) 16200 1210 2200 11800 34600 40000
2020-08-14 07:00 4.08 4460 40000 (2019) 1210 (2018) 16200 1210 2200 11800 34600 40000
2020-08-14 06:00 4.31 4830 40000 (2019) 1210 (2018) 16200 1210 2200 11800 34600 40000
2020-08-14 05:00 4.58 5270 40000 (2019) 1210 (2018) 16200 1210 2200 11800 34600 40000
2020-08-14 04:00 4.88 5810 40000 (2019) 1210 (2018) 16200 1210 2200 11800 34600 40000
2020-08-14 03:00 5.22 6450 40000 (2019) 1210 (2018) 16200 1210 2200 11800 34600 40000
2020-08-14 02:00 5.57 7160 40000 (2019) 1210 (2018) 16200 1210 2200 11800 34600 40000
2020-08-14 01:00 5.96 7980 40000 (2019) 1210 (2018) 16200 1210 2200 11800 34600 40000
2020-08-14 00:00 6.36 8860 40000 (2019) 1210 (2018) 16200 1210 2200 11800 34600 40000
2020-08-13 23:00 6.78 9820 44800 (2019) 1090 (2018) 20600 1090 4870 18200 38700 44800
2020-08-13 22:00 7.18 10800 44800 (2019) 1090 (2018) 20600 1090 4870 18200 38700 44800
2020-08-13 21:00 7.50 11600 44800 (2019) 1090 (2018) 20600 1090 4870 18200 38700 44800
2020-08-13 20:00 7.57 11700 44800 (2019) 1090 (2018) 20600 1090 4870 18200 38700 44800
2020-08-13 19:00 6.92 10200 44800 (2019) 1090 (2018) 20600 1090 4870 18200 38700 44800
2020-08-13 18:00 5.67 7360 44800 (2019) 1090 (2018) 20600 1090 4870 18200 38700 44800
2020-08-13 17:00 4.12 4520 44800 (2019) 1090 (2018) 20600 1090 4870 18200 38700 44800
2020-08-13 16:00 3.25 3140 44800 (2019) 1090 (2018) 20600 1090 4870 18200 38700 44800
2020-08-13 15:00 3.19 3060 44800 (2019) 1090 (2018) 20600 1090 4870 18200 38700 44800
2020-08-13 14:00 3.28 3180 44800 (2019) 1090 (2018) 20600 1090 4870 18200 38700 44800
2020-08-13 13:00 3.40 3350 44800 (2019) 1090 (2018) 20600 1090 4870 18200 38700 44800
2020-08-13 12:00 3.52 3520 44800 (2019) 1090 (2018) 20600 1090 4870 18200 38700 44800
2020-08-13 11:00 3.67 3740 44800 (2019) 1090 (2018) 20600 1090 4870 18200 38700 44800
2020-08-13 10:00 3.84 4040 44800 (2019) 1090 (2018) 20600 1090 4870 18200 38700 44800
2020-08-13 09:00 4.04 4390 44800 (2019) 1090 (2018) 20600 1090 4870 18200 38700 44800
2020-08-13 08:00 4.27 4760 44800 (2019) 1090 (2018) 20600 1090 4870 18200 38700 44800
2020-08-13 07:00 4.53 5180 44800 (2019) 1090 (2018) 20600 1090 4870 18200 38700 44800
2020-08-13 06:00 4.83 5720 44800 (2019) 1090 (2018) 20600 1090 4870 18200 38700 44800
2020-08-13 05:00 5.16 6330 44800 (2019) 1090 (2018) 20600 1090 4870 18200 38700 44800
2020-08-13 04:00 5.53 7070 44800 (2019) 1090 (2018) 20600 1090 4870 18200 38700 44800
2020-08-13 03:00 5.94 7940 44800 (2019) 1090 (2018) 20600 1090 4870 18200 38700 44800
2020-08-13 02:00 6.38 8900 44800 (2019) 1090 (2018) 20600 1090 4870 18200 38700 44800
2020-08-13 01:00 6.85 9990 44800 (2019) 1090 (2018) 20600 1090 4870 18200 38700 44800
2020-08-13 00:00 7.33 11100 44800 (2019) 1090 (2018) 20600 1090 4870 18200 38700 44800
2020-08-12 23:00 7.84 12400 49000 (2019) 1100 (2018) 22500 1100 4650 20000 42900 49000
2020-08-12 22:00 8.31 13700 49000 (2019) 1100 (2018) 22500 1100 4650 20000 42900 49000
2020-08-12 21:00 8.62 14500 49000 (2019) 1100 (2018) 22500 1100 4650 20000 42900 49000
2020-08-12 20:00 8.32 13700 49000 (2019) 1100 (2018) 22500 1100 4650 20000 42900 49000
2020-08-12 19:00 6.89 10100 49000 (2019) 1100 (2018) 22500 1100 4650 20000 42900 49000
2020-08-12 18:00 4.89 5830 49000 (2019) 1100 (2018) 22500 1100 4650 20000 42900 49000
2020-08-12 17:00 3.60 3630 49000 (2019) 1100 (2018) 22500 1100 4650 20000 42900 49000
2020-08-12 16:00 3.19 3060 49000 (2019) 1100 (2018) 22500 1100 4650 20000 42900 49000
2020-08-12 15:00 3.09 2920 49000 (2019) 1100 (2018) 22500 1100 4650 20000 42900 49000
2020-08-12 14:00 3.16 3020 49000 (2019) 1100 (2018) 22500 1100 4650 20000 42900 49000
2020-08-12 13:00 3.25 3140 49000 (2019) 1100 (2018) 22500 1100 4650 20000 42900 49000
2020-08-12 12:00 3.36 3290 49000 (2019) 1100 (2018) 22500 1100 4650 20000 42900 49000
2020-08-12 11:00 3.48 3460 49000 (2019) 1100 (2018) 22500 1100 4650 20000 42900 49000
2020-08-12 10:00 3.63 3680 49000 (2019) 1100 (2018) 22500 1100 4650 20000 42900 49000
2020-08-12 09:00 3.80 3970 49000 (2019) 1100 (2018) 22500 1100 4650 20000 42900 49000
2020-08-12 08:00 4.00 4320 49000 (2019) 1100 (2018) 22500 1100 4650 20000 42900 49000
2020-08-12 07:00 4.23 4700 49000 (2019) 1100 (2018) 22500 1100 4650 20000 42900 49000
2020-08-12 06:00 4.49 5120 49000 (2019) 1100 (2018) 22500 1100 4650 20000 42900 49000
2020-08-12 05:00 4.79 5640 49000 (2019) 1100 (2018) 22500 1100 4650 20000 42900 49000
2020-08-12 04:00 5.12 6260 49000 (2019) 1100 (2018) 22500 1100 4650 20000 42900 49000
2020-08-12 03:00 5.49 6990 49000 (2019) 1100 (2018) 22500 1100 4650 20000 42900 49000
2020-08-12 02:00 5.89 7830 49000 (2019) 1100 (2018) 22500 1100 4650 20000 42900 49000
2020-08-12 01:00 6.32 8770 49000 (2019) 1100 (2018) 22500 1100 4650 20000 42900 49000
2020-08-12 00:00 6.79 9850 49000 (2019) 1100 (2018) 22500 1100 4650 20000 42900 49000
2020-08-11 23:00 7.29 11000 50700 (2019) 1210 (2018) 23500 1210 5580 21000 43900 50700
2020-08-11 22:00 7.80 12300 50700 (2019) 1210 (2018) 23500 1210 5580 21000 43900 50700
2020-08-11 21:00 8.29 13600 50700 (2019) 1210 (2018) 23500 1210 5580 21000 43900 50700
2020-08-11 20:00 8.66 14600 50700 (2019) 1210 (2018) 23500 1210 5580 21000 43900 50700
2020-08-11 19:00 8.57 14400 50700 (2019) 1210 (2018) 23500 1210 5580 21000 43900 50700
2020-08-11 18:00 7.90 12600 50700 (2019) 1210 (2018) 23500 1210 5580 21000 43900 50700
2020-08-11 17:00 7.07 10500 50700 (2019) 1210 (2018) 23500 1210 5580 21000 43900 50700
2020-08-11 16:00 5.89 7830 50700 (2019) 1210 (2018) 23500 1210 5580 21000 43900 50700
2020-08-11 15:00 4.75 5570 50700 (2019) 1210 (2018) 23500 1210 5580 21000 43900 50700
2020-08-11 14:00 4.45 5050 50700 (2019) 1210 (2018) 23500 1210 5580 21000 43900 50700
2020-08-11 13:00 4.66 5410 50700 (2019) 1210 (2018) 23500 1210 5580 21000 43900 50700
2020-08-11 12:00 4.99 6010 50700 (2019) 1210 (2018) 23500 1210 5580 21000 43900 50700
2020-08-11 11:00 5.37 6750 50700 (2019) 1210 (2018) 23500 1210 5580 21000 43900 50700
2020-08-11 10:00 5.80 7640 50700 (2019) 1210 (2018) 23500 1210 5580 21000 43900 50700
2020-08-11 09:00 6.28 8680 50700 (2019) 1210 (2018) 23500 1210 5580 21000 43900 50700
2020-08-11 08:00 6.81 9890 50700 (2019) 1210 (2018) 23500 1210 5580 21000 43900 50700
2020-08-11 07:00 7.39 11300 50700 (2019) 1210 (2018) 23500 1210 5580 21000 43900 50700
2020-08-11 06:00 8.03 12900 50700 (2019) 1210 (2018) 23500 1210 5580 21000 43900 50700
2020-08-11 05:00 8.73 14800 50700 (2019) 1210 (2018) 23500 1210 5580 21000 43900 50700
2020-08-11 04:00 9.49 17000 50700 (2019) 1210 (2018) 23500 1210 5580 21000 43900 50700
2020-08-11 03:00 10.34 19500 50700 (2019) 1210 (2018) 23500 1210 5580 21000 43900 50700
2020-08-11 02:00 11.30 22000 50700 (2019) 1210 (2018) 23500 1210 5580 21000 43900 50700
2020-08-11 01:00 12.32 24900 50700 (2019) 1210 (2018) 23500 1210 5580 21000 43900 50700
2020-08-11 00:00 13.40 28000 50700 (2019) 1210 (2018) 23500 1210 5580 21000 43900 50700

A total of 81 rows are displayed for years 2016 through 2019.